Location: Ash Shall?l al Awwal
(24.0167°N, 32.8667°E)
Time: 03:48:33
(UTC+00:00)

CZ-4 R/B - Pass Details

Date: 02 March 2021
Orbit: 532 x 597 km, 97.7° (Epoch: 12 April)

Event Time Altitude Azimuth Distance (km) Brightness Sun altitude
Rises 16:20:17 0° 156° (SSE) 2,662 4.6 -7.3°
Reaches altitude 10° 16:22:26 10° 150° (SSE) 1,774 3.7 -7.8°
Maximum altitude 16:26:06 46° 76° (ENE) 724 1.5 -8.6°
Drops below altitude 10° 16:29:47 10° 3° (N) 1,788 3.9 -9.5°
Sets 16:31:58 0° 357° (N) 2,686 4.8 -10.0°
